Findlay, OH

7:09 AM EDT on September 21, 2017 (GMT -0400)
Findlay

Weather History for KFDY - February, 2015

Change the Weather History Date:

Monday, February 16, 2015

  Actual Average Record
Temperature  
Mean Temperature 4 °F -  
Max Temperature 9 °F 33 °F 64 °F (1954)
Min Temperature 0 °F 20 °F -4 °F (1963)
Degree Days  
Heating Degree Days 60    
Moisture  
Dew Point -6 °F    
Average Humidity 62    
Maximum Humidity 73    
Minimum Humidity 53    
Precipitation  
Precipitation 0.00 in - - ()
Sea Level Pressure  
Sea Level Pressure 30.24 in    
Wind  
Wind Speed 6 mph (East)    
Max Wind Speed 14 mph    
Max Gust Speed -    
Visibility 10 miles    
Events      
Averages and records for this station are not official NWS values.
T = Trace of Precipitation, MM = Missing Value Source: NWS Daily Summary

Daily Weather History Graph

Daily Weather History Graph

Search for Another Location

Airport or City:

Trip Planner

Search our weather history database for the weather conditions in past years. The results will help you decide how hot, cold, wet, or windy it might be!

Date:

Astronomy

Feb. 16, 2015 Rise Set
Actual Time 7:28 AM EST 6:10 PM EST
Civil Twilight 6:59 AM EST 6:38 PM EST
Nautical Twilight 6:27 AM EST 7:10 PM EST
Astronomical Twilight 5:55 AM EST 7:42 PM EST
Moon 5:22 AM EST (2/16) 3:47 PM EST (2/16)
Length of Visible Light 11h 38m
Length of Day
10h 42m
Waning Crescent, 8% of the Moon is Illuminated
Feb 16
Waning Crescent
Feb 18
New
Feb 25
First Quarter
Mar 5
Full
Mar 13
Last Quarter

Hourly Weather History & Observations

Time (EST) Temp. Windchill Dew Point Humidity Pressure Visibility Wind Dir Wind Speed Gust Speed Precip Events Conditions
12:53 AM -0.9 °F - -8.0 °F 72% 30.49 in 9.0 mi Calm Calm - N/A   Clear
1:53 AM 1.0 °F -6.7 °F -9.0 °F 63% 30.47 in 10.0 mi ESE 3.5 mph - N/A   Clear
2:53 AM 1.0 °F -6.7 °F -8.0 °F 66% 30.45 in 10.0 mi SE 3.5 mph - N/A   Partly Cloudy
3:53 AM 1.0 °F -6.7 °F -8.0 °F 66% 30.43 in 10.0 mi East 3.5 mph - N/A   Scattered Clouds
4:53 AM 1.0 °F -10.3 °F -8.0 °F 66% 30.40 in 10.0 mi East 5.8 mph - N/A   Clear
5:53 AM 1.0 °F -12.9 °F -8.0 °F 66% 30.38 in 10.0 mi East 8.1 mph - N/A   Clear
6:53 AM 1.9 °F -11.8 °F -7.1 °F 66% 30.37 in 10.0 mi East 8.1 mph - N/A   Scattered Clouds
7:53 AM 1.9 °F -11.8 °F -6.0 °F 69% 30.35 in 10.0 mi ESE 8.1 mph - N/A   Mostly Cloudy
8:53 AM 3.0 °F -14.8 °F -6.0 °F 66% 30.33 in 10.0 mi East 13.8 mph - N/A   Overcast
9:53 AM 3.9 °F -11.3 °F -5.1 °F 66% 30.31 in 10.0 mi East 10.4 mph - N/A   Overcast
10:53 AM 5.0 °F -10.8 °F -5.1 °F 63% 30.29 in 10.0 mi ESE 11.5 mph - N/A   Partly Cloudy
11:53 AM 6.1 °F -8.7 °F -5.1 °F 60% 30.26 in 10.0 mi ESE 10.4 mph - N/A   Overcast
12:53 PM 8.1 °F -3.2 °F -4.0 °F 58% 30.23 in 10.0 mi ESE 6.9 mph - N/A   Overcast
1:53 PM 8.1 °F -5.3 °F -4.0 °F 58% 30.19 in 10.0 mi East 9.2 mph - N/A   Overcast
2:53 PM 9.0 °F -3.2 °F -4.0 °F 56% 30.13 in 10.0 mi East 8.1 mph - N/A   Clear
3:53 PM 9.0 °F -6.6 °F -5.1 °F 53% 30.10 in 10.0 mi East 12.7 mph - N/A   Clear
4:53 PM 9.0 °F -4.2 °F -4.0 °F 56% 30.08 in 10.0 mi ENE 9.2 mph - N/A   Scattered Clouds
5:53 PM 8.1 °F -7.0 °F -4.0 °F 58% 30.07 in 10.0 mi NE 11.5 mph - N/A   Clear
6:53 PM 8.1 °F -6.2 °F -5.1 °F 55% 30.07 in 10.0 mi ENE 10.4 mph - N/A   Clear
7:53 PM 8.1 °F -3.2 °F -5.1 °F 55% 30.06 in 10.0 mi ENE 6.9 mph - N/A   Clear
8:53 PM 7.0 °F -4.5 °F -5.1 °F 58% 30.05 in 10.0 mi NE 6.9 mph - N/A   Clear
9:53 PM 7.0 °F -3.3 °F -4.0 °F 61% 30.04 in 10.0 mi NE 5.8 mph - N/A   Clear
11:53 PM 5.0 °F -2.1 °F -2.0 °F 73% 30.01 in 10.0 mi North 3.5 mph - N/A   Clear